sat.trackr.live / text

‹ back to catalog

STARLINK-33801

NORAD 63963 · 2025-099M

PAYLOAD ACTIVE UNKNOWN

§ Identity

Operator
Country
US
Launch date
2025-05-13
Launch site
AFETR
Launch vehicle
Mass (kg)
RCS (m²)

Purposes: comms

External: N2YO · Heavens-Above · Gunter

§ Orbital elements

Epoch: 2026-09-19T03:22:15.890016Z

Period
94.27 min
Inclination
43.0004°
Eccentricity
0.0001652
Mean motion
15.27581046 rev/d
Perigee alt
481.9 km
Apogee alt
484.2 km
Semi-major
6,861.2 km
B*
4.0284e-4
RAAN
163.5734°
Arg perigee
270.2209°
Mean anomaly
89.8454°
Rev number
7,692

§ Raw data

STARLINK-338011 63963U 25099M   26262.14046169  .00010840  00000+0  40284-3 0  99942 63963  43.0004 163.5734 0001652 270.2209  89.8454 15.27581046 76926

JSON: /api/v1/satellites/63963 · /tle

For live sub-satellite position, see the globe view (requires WebGL).

§ Visibility from observer

Set your observer location to see the next 7 days of passes ≥ 10°. The values pass through the URL so the page stays shareable.

No JS? Fill the form by hand. The geolocation button needs JavaScript.